Time,TemperatureF,DewpointF,PressureIn,WindDirection,WindDirectionDegrees,WindSpeedMPH,WindSpeedGustMPH,Humidity,HourlyPrecipIn,Conditions,Clouds,dailyrainin,SoftwareType,DateUTC
2013-06-04 00:12:00,40.3,26.0,29.85,East,100,0.0,-999.0,58,-99.99,,,0.00,weatherlink.com 1.10,2013-06-04 06:12:00,
2013-06-04 00:27:00,40.0,26.0,29.86,East,100,0.0,-999.0,58,-99.99,,,0.00,weatherlink.com 1.10,2013-06-04 06:27:00,
2013-06-04 00:42:00,40.0,26.0,29.86,East,100,0.0,-999.0,58,-99.99,,,0.00,weatherlink.com 1.10,2013-06-04 06:42:00,
2013-06-04 00:57:00,39.3,26.0,29.85,East,100,0.0,-999.0,59,-99.99,,,0.00,weatherlink.com 1.10,2013-06-04 06:57:00,
2013-06-04 01:12:00,38.8,26.0,29.85,East,100,0.0,-999.0,60,-99.99,,,0.00,weatherlink.com 1.10,2013-06-04 07:12:00,
2013-06-04 01:27:00,39.1,26.0,29.84,East,100,0.0,-999.0,60,-99.99,,,0.00,weatherlink.com 1.10,2013-06-04 07:27:00,
2013-06-04 01:42:00,39.5,26.0,29.85,East,100,0.0,-999.0,59,-99.99,,,0.00,weatherlink.com 1.10,2013-06-04 07:42:00,
2013-06-04 01:57:00,38.9,26.0,29.85,East,100,0.0,-999.0,60,-99.99,,,0.00,weatherlink.com 1.10,2013-06-04 07:57:00,
2013-06-04 02:12:00,37.6,25.0,29.84,East,100,0.0,-999.0,62,-99.99,,,0.00,weatherlink.com 1.10,2013-06-04 08:12:00,
2013-06-04 02:27:00,35.9,25.0,29.84,East,100,0.0,-999.0,64,-99.99,,,0.00,weatherlink.com 1.10,2013-06-04 08:27:00,
2013-06-04 02:42:00,34.8,25.0,29.84,East,100,0.0,-999.0,67,-99.99,,,0.00,weatherlink.com 1.10,2013-06-04 08:42:00,
2013-06-04 02:57:00,34.4,25.0,29.84,East,100,0.0,-999.0,69,-99.99,,,0.00,weatherlink.com 1.10,2013-06-04 08:57:00,
2013-06-04 03:12:00,35.0,25.0,29.83,East,100,0.0,-999.0,66,-99.99,,,0.00,weatherlink.com 1.10,2013-06-04 09:12:00,
2013-06-04 03:27:00,34.6,24.0,29.82,East,100,0.0,-999.0,66,-99.99,,,0.00,weatherlink.com 1.10,2013-06-04 09:27:00,
2013-06-04 03:42:00,34.3,24.0,29.82,East,100,0.0,-999.0,65,-99.99,,,0.00,weatherlink.com 1.10,2013-06-04 09:42:00,
2013-06-04 03:57:00,34.1,23.0,29.82,East,100,0.0,-999.0,63,-99.99,,,0.00,weatherlink.com 1.10,2013-06-04 09:57:00,
2013-06-04 04:12:00,33.2,23.0,29.82,East,100,0.0,-999.0,65,-99.99,,,0.00,weatherlink.com 1.10,2013-06-04 10:12:00,
2013-06-04 04:27:00,32.4,21.0,29.82,East,100,1.0,-999.0,64,-99.99,,,0.00,weatherlink.com 1.10,2013-06-04 10:27:00,
2013-06-04 04:42:00,32.0,21.0,29.82,East,100,0.0,-999.0,64,-99.99,,,0.00,weatherlink.com 1.10,2013-06-04 10:42:00,
2013-06-04 04:57:00,31.5,21.0,29.83,East,101,0.0,-999.0,65,-99.99,,,0.00,weatherlink.com 1.10,2013-06-04 10:57:00,
2013-06-04 05:12:00,32.7,21.0,29.84,East,101,0.0,-999.0,62,-99.99,,,0.00,weatherlink.com 1.10,2013-06-04 11:12:00,
2013-06-04 05:27:00,33.7,21.0,29.84,East,101,0.0,-999.0,59,-99.99,,,0.00,weatherlink.com 1.10,2013-06-04 11:27:00,
2013-06-04 05:42:00,34.6,21.0,29.84,SE,133,0.0,-999.0,59,-99.99,,,0.00,weatherlink.com 1.10,2013-06-04 11:42:00,
2013-06-04 05:57:00,35.4,21.0,29.84,SE,133,0.0,-999.0,56,-99.99,,,0.00,weatherlink.com 1.10,2013-06-04 11:57:00,
2013-06-04 06:12:00,36.2,22.0,29.84,SE,133,0.0,-999.0,56,-99.99,,,0.00,weatherlink.com 1.10,2013-06-04 12:12:00,
2013-06-04 06:27:00,37.3,21.0,29.84,SE,132,1.0,-999.0,51,-99.99,,,0.00,weatherlink.com 1.10,2013-06-04 12:27:00,
2013-06-04 06:42:00,40.9,21.0,29.84,NNW,338,0.0,-999.0,46,-99.99,,,0.00,weatherlink.com 1.10,2013-06-04 12:42:00,
2013-06-04 06:57:00,44.1,20.0,29.84,East,81,1.0,-999.0,39,-99.99,,,0.00,weatherlink.com 1.10,2013-06-04 12:57:00,
2013-06-04 07:12:00,46.2,23.0,29.84,SW,221,0.0,-999.0,40,-99.99,,,0.00,weatherlink.com 1.10,2013-06-04 13:12:00,
2013-06-04 07:27:00,49.0,22.0,29.83,SE,130,0.0,-999.0,34,-99.99,,,0.00,weatherlink.com 1.10,2013-06-04 13:27:00,
2013-06-04 07:42:00,50.5,21.0,29.84,ENE,59,0.0,-999.0,32,-99.99,,,0.00,weatherlink.com 1.10,2013-06-04 13:42:00,
2013-06-04 07:57:00,50.3,23.0,29.84,ENE,74,0.0,-999.0,35,-99.99,,,0.00,weatherlink.com 1.10,2013-06-04 13:57:00,
2013-06-04 08:12:00,50.8,22.0,29.84,ENE,59,2.0,-999.0,33,-99.99,,,0.00,weatherlink.com 1.10,2013-06-04 14:12:00,
2013-06-04 08:27:00,50.9,21.0,29.84,NNE,15,4.0,-999.0,31,-99.99,,,0.00,weatherlink.com 1.10,2013-06-04 14:27:00,
2013-06-04 08:42:00,51.5,21.0,29.84,NE,41,1.0,-999.0,30,-99.99,,,0.00,weatherlink.com 1.10,2013-06-04 14:42:00,
2013-06-04 08:57:00,54.4,23.0,29.84,ENE,69,2.0,-999.0,29,-99.99,,,0.00,weatherlink.com 1.10,2013-06-04 14:57:00,
2013-06-04 09:12:00,56.0,23.0,29.84,SW,219,1.0,-999.0,28,-99.99,,,0.00,weatherlink.com 1.10,2013-06-04 15:12:00,
2013-06-04 09:27:00,57.4,23.0,29.83,NE,48,2.0,-999.0,27,-99.99,,,0.00,weatherlink.com 1.10,2013-06-04 15:27:00,
2013-06-04 09:42:00,58.5,25.0,29.83,ESE,111,2.0,-999.0,28,-99.99,,,0.00,weatherlink.com 1.10,2013-06-04 15:42:00,
2013-06-04 09:57:00,58.5,25.0,29.82,NNE,33,7.0,-999.0,28,-99.99,,,0.00,weatherlink.com 1.10,2013-06-04 15:57:00,
2013-06-04 10:12:00,59.0,26.0,29.82,ESE,117,1.0,-999.0,28,-99.99,,,0.00,weatherlink.com 1.10,2013-06-04 16:12:00,
2013-06-04 10:27:00,59.7,26.0,29.83,East,99,1.0,-999.0,28,-99.99,,,0.00,weatherlink.com 1.10,2013-06-04 16:27:00,
2013-06-04 10:42:00,59.8,26.0,29.83,ENE,63,4.0,-999.0,28,-99.99,,,0.00,weatherlink.com 1.10,2013-06-04 16:42:00,
2013-06-04 10:57:00,60.5,28.0,29.83,ENE,76,2.0,-999.0,29,-99.99,,,0.00,weatherlink.com 1.10,2013-06-04 16:57:00,
2013-06-04 11:12:00,61.3,28.0,29.83,East,83,2.0,-999.0,28,-99.99,,,0.00,weatherlink.com 1.10,2013-06-04 17:12:00,
2013-06-04 11:27:00,61.4,27.0,29.83,ENE,67,2.0,-999.0,27,-99.99,,,0.00,weatherlink.com 1.10,2013-06-04 17:27:00,
2013-06-04 11:42:00,62.0,28.0,29.83,SSE,152,3.0,-999.0,28,-99.99,,,0.00,weatherlink.com 1.10,2013-06-04 17:42:00,
2013-06-04 11:57:00,62.8,27.0,29.83,ENE,69,1.0,-999.0,26,-99.99,,,0.00,weatherlink.com 1.10,2013-06-04 17:57:00,
2013-06-04 12:12:00,63.2,29.0,29.84,SE,128,8.0,-999.0,27,-99.99,,,0.00,weatherlink.com 1.10,2013-06-04 18:12:00,
2013-06-04 12:27:00,62.3,29.0,29.84,SSW,193,4.0,-999.0,28,-99.99,,,0.00,weatherlink.com 1.10,2013-06-04 18:27:00,
2013-06-04 12:42:00,60.6,29.0,29.84,ENE,72,4.0,-999.0,30,-99.99,,,0.00,weatherlink.com 1.10,2013-06-04 18:42:00,
2013-06-04 12:57:00,62.4,29.0,29.83,ENE,67,4.0,-999.0,28,-99.99,,,0.00,weatherlink.com 1.10,2013-06-04 18:57:00,
2013-06-04 13:12:00,60.2,28.0,29.84,ENE,74,5.0,-999.0,29,-99.99,,,0.00,weatherlink.com 1.10,2013-06-04 19:12:00,
2013-06-04 13:27:00,61.6,28.0,29.83,East,79,4.0,-999.0,28,-99.99,,,0.00,weatherlink.com 1.10,2013-06-04 19:27:00,
2013-06-04 13:42:00,63.0,28.0,29.82,NW,309,4.0,-999.0,27,-99.99,,,0.00,weatherlink.com 1.10,2013-06-04 19:42:00,
2013-06-04 13:57:00,63.6,30.0,29.81,NE,44,5.0,-999.0,28,-99.99,,,0.00,weatherlink.com 1.10,2013-06-04 19:57:00,
2013-06-04 14:12:00,63.4,30.0,29.81,WSW,238,1.0,-999.0,28,-99.99,,,0.00,weatherlink.com 1.10,2013-06-04 20:12:00,
2013-06-04 14:27:00,63.0,29.0,29.81,NE,49,5.0,-999.0,28,-99.99,,,0.00,weatherlink.com 1.10,2013-06-04 20:27:00,
2013-06-04 14:42:00,64.1,30.0,29.82,NE,43,5.0,-999.0,28,-99.99,,,0.00,weatherlink.com 1.10,2013-06-04 20:42:00,
2013-06-04 14:57:00,60.4,33.0,29.85,South,184,1.0,-999.0,36,-99.99,,,0.00,weatherlink.com 1.10,2013-06-04 20:57:00,
2013-06-04 15:13:00,57.2,31.0,29.85,South,169,2.0,-999.0,37,-99.99,,,0.00,weatherlink.com 1.10,2013-06-04 21:13:00,
2013-06-04 15:28:00,53.3,30.0,29.86,East,86,7.0,-999.0,41,-99.99,,,0.00,weatherlink.com 1.10,2013-06-04 21:28:00,
2013-06-04 15:43:00,52.5,29.0,29.85,South,171,2.0,-999.0,40,-99.99,,,0.00,weatherlink.com 1.10,2013-06-04 21:43:00,
2013-06-04 15:58:00,54.7,29.0,29.84,NE,38,5.0,-999.0,38,-99.99,,,0.00,weatherlink.com 1.10,2013-06-04 21:58:00,
2013-06-04 16:13:00,56.7,29.0,29.84,SW,223,5.0,-999.0,35,-99.99,,,0.00,weatherlink.com 1.10,2013-06-04 22:13:00,
2013-06-04 16:28:00,58.5,30.0,29.82,North,355,0.0,-999.0,34,-99.99,,,0.00,weatherlink.com 1.10,2013-06-04 22:28:00,
2013-06-04 16:43:00,59.6,30.0,29.83,SSE,166,2.0,-999.0,32,-99.99,,,0.00,weatherlink.com 1.10,2013-06-04 22:43:00,
2013-06-04 16:58:00,59.3,30.0,29.84,South,180,0.0,-999.0,33,-99.99,,,0.00,weatherlink.com 1.10,2013-06-04 22:58:00,
2013-06-04 17:13:00,58.7,30.0,29.83,ENE,68,2.0,-999.0,34,-99.99,,,0.00,weatherlink.com 1.10,2013-06-04 23:13:00,
2013-06-04 17:28:00,55.8,30.0,29.85,NE,34,0.0,-999.0,38,-99.99,,,0.00,weatherlink.com 1.10,2013-06-04 23:28:00,
2013-06-04 17:43:00,56.0,30.0,29.83,SE,126,3.0,-999.0,37,-99.99,,,0.00,weatherlink.com 1.10,2013-06-04 23:43:00,
2013-06-04 17:58:00,55.1,29.0,29.83,ENE,59,0.0,-999.0,37,-99.99,,,0.00,weatherlink.com 1.10,2013-06-04 23:58:00,
2013-06-04 18:13:00,54.5,28.0,29.83,ENE,64,0.0,-999.0,36,-99.99,,,0.00,weatherlink.com 1.10,2013-06-05 00:13:00,
2013-06-04 18:27:00,54.1,28.0,29.82,NE,55,0.0,-999.0,37,-99.99,,,0.00,weatherlink.com 1.10,2013-06-05 00:27:00,
2013-06-04 18:43:00,54.4,29.0,29.83,NNE,21,0.0,-999.0,38,-99.99,,,0.00,weatherlink.com 1.10,2013-06-05 00:43:00,
2013-06-04 18:58:00,53.8,30.0,29.85,SSE,158,0.0,-999.0,40,-99.99,,,0.00,weatherlink.com 1.10,2013-06-05 00:58:00,
2013-06-04 19:13:00,53.1,30.0,29.85,NE,55,1.0,-999.0,41,-99.99,,,0.00,weatherlink.com 1.10,2013-06-05 01:13:00,
2013-06-04 19:28:00,52.6,30.0,29.85,NE,53,0.0,-999.0,42,-99.99,,,0.00,weatherlink.com 1.10,2013-06-05 01:28:00,
2013-06-04 19:43:00,52.2,30.0,29.85,NE,53,0.0,-999.0,43,-99.99,,,0.00,weatherlink.com 1.10,2013-06-05 01:43:00,
2013-06-04 19:58:00,51.6,30.0,29.86,NE,53,0.0,-999.0,44,-99.99,,,0.00,weatherlink.com 1.10,2013-06-05 01:58:00,
2013-06-04 20:13:00,49.9,30.0,29.86,NE,53,0.0,-999.0,47,-99.99,,,0.00,weatherlink.com 1.10,2013-06-05 02:13:00,
2013-06-04 20:28:00,47.9,30.0,29.88,NE,54,0.0,-999.0,51,-99.99,,,0.00,weatherlink.com 1.10,2013-06-05 02:28:00,
2013-06-04 20:43:00,47.7,31.0,29.90,NE,56,0.0,-999.0,53,-99.99,,,0.00,weatherlink.com 1.10,2013-06-05 02:43:00,
2013-06-04 20:58:00,47.9,30.0,29.90,SSE,163,0.0,-999.0,51,-99.99,,,0.00,weatherlink.com 1.10,2013-06-05 02:58:00,
2013-06-04 21:13:00,47.1,30.0,29.90,SW,221,0.0,-999.0,52,-99.99,,,0.00,weatherlink.com 1.10,2013-06-05 03:13:00,
2013-06-04 21:28:00,46.0,30.0,29.91,SW,220,1.0,-999.0,55,-99.99,,,0.00,weatherlink.com 1.10,2013-06-05 03:28:00,
2013-06-04 21:43:00,45.5,32.0,29.91,SSW,195,0.0,-999.0,60,-99.99,,,0.00,weatherlink.com 1.10,2013-06-05 03:43:00,
2013-06-04 21:58:00,45.3,32.0,29.91,NE,56,1.0,-999.0,59,-99.99,,,0.00,weatherlink.com 1.10,2013-06-05 03:58:00,
2013-06-04 22:13:00,45.0,31.0,29.93,NE,56,0.0,-999.0,59,-99.99,,,0.00,weatherlink.com 1.10,2013-06-05 04:13:00,
2013-06-04 22:27:00,43.9,31.0,29.92,ENE,59,0.0,-999.0,62,-99.99,,,0.00,weatherlink.com 1.10,2013-06-05 04:27:00,
2013-06-04 22:43:00,43.4,31.0,29.93,ENE,59,0.0,-999.0,63,-99.99,,,0.00,weatherlink.com 1.10,2013-06-05 04:43:00,
2013-06-04 22:58:00,43.2,31.0,29.93,ENE,59,1.0,-999.0,63,-99.99,,,0.00,weatherlink.com 1.10,2013-06-05 04:58:00,
2013-06-04 23:13:00,43.5,32.0,29.93,ENE,59,0.0,-999.0,63,-99.99,,,0.00,weatherlink.com 1.10,2013-06-05 05:13:00,
2013-06-04 23:28:00,43.7,31.0,29.93,ENE,59,0.0,-999.0,62,-99.99,,,0.00,weatherlink.com 1.10,2013-06-05 05:28:00,
2013-06-04 23:43:00,43.8,31.0,29.93,ENE,59,0.0,-999.0,62,-99.99,,,0.00,weatherlink.com 1.10,2013-06-05 05:43:00,
2013-06-04 23:58:00,43.8,31.0,29.93,ENE,59,0.0,-999.0,62,-99.99,,,0.00,weatherlink.com 1.10,2013-06-05 05:58:00,